Regional Weather Roundup
Issued by NWS Wakefield, VA

Home | Current Version | Previous Version | Text Only | Print | Product List | Glossary On
Versions: 1 2 3 4 5 6 7 8 9 10 11 12 13 14 15 16 17 18 19 20 21 22 23 24 25 26 27
000
ASUS41 KAKQ 280515
RWRAKQ

REGIONAL WEATHER ROUNDUP
NATIONAL WEATHER SERVICE WAKEFIELD VA
100 AM EDT WED JUN 28 2017

Note: "fair" indicates few or no clouds below 12,000 feet with no
significant weather and/or obstructions to visibility. * = Denotes
station may not report precipitation (e.g., rain,snow,etc.),
thunder or fog.

VAZ042-051-052>054-056-280600-
NORTHERN VIRGINIA

CITY           SKY/WX    TMP DP  RH WIND       PRES   REMARKS
WASH NATIONAL  PTCLDY    67  48  50 NW7       30.10S
DULLES         CLEAR     60  46  59 CALM      30.11R
FORT BELVOIR   CLEAR     59  49  71 CALM      30.10R
QUANTICO       PTCLDY    64  51  62 NW6       30.11S
FREDERICKSBRG* CLEAR     61  54  76 CALM      30.10S
STAFFORD*      CLEAR     55  53  93 CALM      30.15R
WARRENTON      CLEAR     55  47  76 CALM      30.11S
CULPEPER*      CLEAR     55  52  87 CALM      30.13R
MANASSAS*      PTCLDY    56  51  84 CALM      30.12R
LEESBURG*      CLEAR     63  50  63 NW6       30.12R
WINCHESTER     CLEAR     54  46  76 CALM      30.12S
FRONT ROYAL*   CLEAR     55  48  76 CALM      30.12S
LURAY*         CLEAR     57  50  77 SE6       30.14R
$$

VAZ048-049-060>072-079>083-280600-
CENTRAL AND SOUTH CENTRAL VIRGINIA

CITY           SKY/WX    TMP DP  RH WIND       PRES   REMARKS
RICHMOND       CLEAR     66  53  63 N10       30.09R
CHESTERFIELD*  FAIR      63  55  75 N5        30.10R
PETERSBURG*    CLEAR     56  55  95 CALM      30.10R
HANOVER        CLEAR     62  52  69 CALM      30.11R
TAPPAHANNOCK*  CLEAR     64  51  61 CALM      30.10S
QUINTON*       FAIR      64  56  76 CALM      30.09R
CHARLOTTSVILLE CLEAR     64  48  56 CALM      30.12R
GORDONSVILLE*  CLEAR     57  52  84 CALM      30.12R
ORANGE*        CLEAR     55  52  88 CALM      30.12S
LOUISA*        PTCLDY    59  54  82 CALM      30.11S
BUMPASS*       FAIR      65  51  59 N3        30.11S
FARMVILLE*     CLEAR     58  49  73 CALM      30.10S
CREWE*         FAIR      61  55  79 NW6       30.10R
FORT PICKETT*  FAIR      60  56  86 NW7       30.10R
CHASE CITY*    FAIR      60  60  99 CALM      30.11R
CLARKSVILLE*   FAIR      63  55  77 CALM      30.10S
SOUTH HILL*    CLEAR     57  56  96 CALM      30.16R
LAWRENCEVILLE* FAIR      58  56  94 CALM      30.10R
EMPORIA*       CLEAR     57  54  88 CALM      30.10S
$$

VAZ088>098-280600-
SOUTHEAST VIRGINIA

CITY           SKY/WX    TMP DP  RH WIND       PRES   REMARKS
NORFOLK        CLEAR     72  62  71 W3        30.06S
VIRGINIA BEACH CLEAR     65  61  87 SW3       30.05S
NORFOLK NAVAL  NOT AVBL
WEST POINT*    CLEAR     65  58  79 N6        30.10R
SALUDA*        MOCLDY    67  63  87 NW7       30.08R
NEWPORT NEWS   CLEAR     60  57  89 N3        30.07R
LANGLEY AFB    CLEAR     66  60  79 NW6       30.06S
FORT EUSTIS    CLEAR     69  59  71 CALM      30.04S
WILLIAMSBURG*  CLEAR     64  61  88 CALM      30.08R
HR EXEC AP*    FAIR      57  54  88 CALM      30.06R
FRANKLIN*      CLEAR     61  57  88 CALM      30.08S
US460-WAKEFLD  PTCLDY    59  58  96 CALM      30.08R
$$

VAZ020-022-025-037-045-280600-
WEST CENTRAL AND SOUTHWEST VIRGINIA

CITY           SKY/WX    TMP DP  RH WIND       PRES   REMARKS
STAUNTON*      CLEAR     53  47  81 CALM      30.17S
WAYNESBORO*    CLEAR     54  50  88 W3        30.16R
HOT SPRINGS VA CLEAR     52  37  58 CALM      30.22S
LYNCHBURG      CLEAR     55  49  80 N5        30.13S
DANVILLE       CLEAR     58  58 100 N3        30.12R
SOUTH BOSTON*  FAIR      57  56  95 CALM      30.12R
MARTINSVILLE   CLEAR     55  54  97 CALM      30.17S
ROANOKE        CLEAR     57  48  72 S5        30.17R
BLACKSBURG     CLEAR     52  47  81 CALM      30.21S
DUBLIN*        CLEAR     54  44  68 CALM      30.20R
MARION*        CLEAR     51  48  89 CALM      30.23S
HILLSVILLE*    CLEAR     57  44  62 CALM      30.20R
RICHLANDS*     FAIR      54  17  23 CALM      30.21S
WISE*          CLEAR     55  45  67 CALM      30.22S
ABINGDON*      CLEAR     56  51  83 CALM      30.19R
$$

MDZ021>025-VAZ099-100-280600-
SOUTHERN MARYLAND AND THE DELMARVA PENINSULA

CITY           SKY/WX    TMP DP  RH WIND       PRES   REMARKS
PATUXENT RIVER CLOUDY    71  49  45 N8        30.09R
BAY BRIDGE APT PTCLDY    70  50  49 NW10G18   30.09R
LEONARDTOWN    CLOUDY    68  50  52 CALM      30.11R
DOVER          MOCLDY    66  53  63 NW7       30.07R
GEORGETOWN     PTCLDY    67  54  63 NW5       30.08R
EASTON         CLEAR     67  49  53 CALM      30.12S
CAMBRIDGE      PTCLDY    66  55  68 N7        30.09R
SALISBURY      LGT RAIN  63  60  90 N5        30.07R
OCEAN CITY     MOCLDY    63  56  78 NW7       30.07R
WALLOPS ISLAND MOCLDY    62  61  96 W5        30.06S
ACCOMACK*      CLEAR     62  56  83 CALM      30.06S
$$

NCZ012>017-030>032-280600-
NORTH CENTRAL AND EASTERN NORTH CAROLINA

CITY           SKY/WX    TMP DP  RH WIND       PRES   REMARKS
ROANOKE RAPIDS FAIR      59  57  94 SW3       30.09R
RALEIGH        CLEAR     61  57  87 NE3       30.11S
ELIZABETH CITY CLEAR     66  64  93 W3        30.07S
AHOSKIE*         N/A     59  57  93 CALM      30.09R
EDENTON*       CLEAR     67  60  80 CALM      30.08S
CURRITUCK*     CLEAR     66  66 100 CALM      30.07S
KILL DEVIL HLS PTCLDY    69  65  89 CALM      30.06R
MANTEO         PTCLDY    67  65  93 CALM      30.07R
CAPE HATTERAS  NOT AVBL
TARBORO*       NOT AVBL
GOLDSBORO      CLEAR     65  63  93 CALM      30.08R
WASHINGTON       N/A    N/A N/A N/A CALM      30.09R
GREENVILLE     CLEAR     63  61  94 CALM      30.10R
NEW BERN       CLEAR     68  62  81 CALM      30.09S
WILMINGTON     PTCLDY    73  67  81 N7        30.07S
$$

VAZ048-280600-
ELSEWHERE

CITY           SKY/WX    TMP DP  RH WIND       PRES   REMARKS
HARRISBURG PA  CLEAR     64  51  62 W9        30.08R
BALTIMORE      PTCLDY    60  50  69 CALM      30.09R
ANNAPOLIS      PTCLDY    67  54  63 N6        30.08S
ANDREWS AFB    PTCLDY    62  47  59 N3        30.09S
PHILADELPHIA   PTCLDY    67  47  48 NW8       30.07R
HENDERSON NC   CLEAR     60  54  79 CALM      30.11R
GREENSBORO     PTCLDY    64  58  80 CALM      30.12R
ROCKY MOUNT    CLEAR     61  61 100 CALM      30.10R
$$

VAZ100-280600-
MARINE

STATION/POSITION TIME  TEMP    WIND        PRES    WAVE   SWELL
                       AIR SEA DIR/SP/G            HT/PER HT/PER
                 (UTC) (F)     (DEG/KT/KT) (MB)    (FT/S) (FT/S)
BRANDYWINE LGT   0448   71     350/ 20/ 22 1018.2R
CAPE MAY NJ      0448   70 68   10/  2/  7 1017.6R
LEWES DE         0448   69 71  310/ 14/ 17 1018.1R
15NM E FENWICK I 0450   69 69  290/ 16/ 19 1017.7R
OCEAN-CITY-INLET 0448   66 68  320/  9/ 11 1018.4R
WACHAPREAGUE VA  0448   66 78  210/  3/  4 1017.6F
THOMAS POINT MD  0500   70 77  330/ 11/ 13   N/A
GOOSES REEF MD   0450   73     360/ 16/ 19 1019.3R
COVE POINT MD    0448   72      10/ 14/ 19 1019.4R
SOLOMONS ISLAND  0448   71 79  340/  7/ 10   N/A
BISHOPS HEAD MD  0448   69 80  350/  5/  9 1018.4R
PINEY POINT MD   0448           10/  8/  9   N/A
POTOMAC MD       0450   71     350/ 12/ 16 1017.9R
CAMBRIDGE MD     0448   71 81              1019.4R
LEWISETTA VA     0448   72 79   10/ 10/ 15 1018.6R
RAPPAHANNOCK LGT 0448          110/  7/  8 1018.4S
STINGRAY PT      0450   75     130/  4/  6 1017.6R
YORK RVR RNG VA  0448   73     330/  8/  9 1018.2R
YORKTOWN VA      0448   72 79  280/  5/  6 1017.6S
JAMESTOWN VA     0450   74     290/  8/ 10   N/A
DOMINION TERM VA 0448   75     320/ 11/ 13 1018.1S
KIPTOPEKE VA     0448      76   20/  4/  6   N/A
CHES BAY BRIDGE  0448   75 76  300/ 10/ 12 1017.7S
CAPE HENRY VA    0448   70     240/  6/  9   N/A
WILLOUBY STN VA  0448   74     290/ 10/ 11 1017.7S
S CRANEY ISL VA  0448   71     280/  5/  7 1017.8S
CAPE HENRY BUOY  0430      72                N/A     1/ 9
1ST LANDING BUOY 0450   76                 1017.7S
CAPE CHARLES BUO 0451      69                N/A     1/ 8
64NM E OF VA BCH 0450   74 74  290/  6/  8 1017.8R   1/ 9   2/ 9
DUCK PIER NC     0448   73 75  330/  2/  2 1017.6R
44100 DUCK FRF   0405      73                N/A     2/ 7
OREGON INLET NC  0448          360/  4/  5   N/A
HATTERAS NC      0448   78 80  340/ 15/ 18 1017.5R
DIAMOND SHLS NC  0450   80 81  290/ 14/ 16 1017.0R   2/ 6   2/ 7
CAPE LOOKOUT NC  0500   77     350/ 12/ 15 1017.9R
$$




USA.gov is the U.S. government's official web portal to all federal, state and local government web resources and services.